TimeCDT,TemperatureF,Dew PointF,Humidity,Sea Level PressureIn,VisibilityMPH,Wind Direction,Wind SpeedMPH,Gust SpeedMPH,PrecipitationIn,Events,Conditions,WindDirDegrees,DateUTC
12:53 AM,75.0,68.0,79,30.04,10.0,South,5.8,-,N/A,,Clear,180,2013-09-19 05:53:00
1:53 AM,73.0,68.0,84,30.04,10.0,South,4.6,-,N/A,,Clear,180,2013-09-19 06:53:00
2:53 AM,73.0,68.0,84,30.04,10.0,South,4.6,-,N/A,,Clear,170,2013-09-19 07:53:00
3:53 AM,72.0,68.0,87,30.04,10.0,South,3.5,-,N/A,,Clear,170,2013-09-19 08:53:00
4:53 AM,71.1,68.0,90,30.04,10.0,South,3.5,-,N/A,,Clear,180,2013-09-19 09:53:00
5:53 AM,70.0,66.9,90,30.05,10.0,Calm,Calm,-,N/A,,Clear,0,2013-09-19 10:53:00
6:53 AM,71.1,68.0,90,30.07,9.0,East,4.6,-,N/A,,Clear,100,2013-09-19 11:53:00
7:53 AM,73.0,68.0,84,30.08,9.0,ENE,3.5,-,N/A,,Clear,70,2013-09-19 12:53:00
8:53 AM,78.1,68.0,71,30.08,10.0,SE,5.8,-,N/A,,Clear,140,2013-09-19 13:53:00
9:53 AM,82.0,69.1,65,30.08,10.0,SSE,9.2,-,N/A,,Clear,150,2013-09-19 14:53:00
10:53 AM,84.9,70.0,61,30.08,10.0,Variable,6.9,-,N/A,,Clear,0,2013-09-19 15:53:00
11:53 AM,87.1,69.1,55,30.07,10.0,Variable,3.5,-,N/A,,Partly Cloudy,0,2013-09-19 16:53:00
12:53 PM,90.0,66.9,46,30.05,10.0,South,8.1,-,N/A,,Partly Cloudy,180,2013-09-19 17:53:00
1:53 PM,91.0,66.9,45,30.02,10.0,South,8.1,-,N/A,,Clear,170,2013-09-19 18:53:00
2:53 PM,91.9,66.0,42,29.99,10.0,ESE,8.1,-,N/A,,Scattered Clouds,120,2013-09-19 19:53:00
3:53 PM,91.9,64.0,39,29.97,10.0,South,6.9,-,N/A,,Scattered Clouds,190,2013-09-19 20:53:00
4:53 PM,91.9,64.0,39,29.96,10.0,SSE,8.1,-,N/A,,Clear,160,2013-09-19 21:53:00
5:53 PM,91.0,63.0,39,29.94,10.0,ESE,10.4,-,N/A,,Clear,110,2013-09-19 22:53:00
6:53 PM,88.0,63.0,43,29.95,10.0,SE,6.9,-,N/A,,Clear,130,2013-09-19 23:53:00
7:53 PM,84.9,64.0,49,29.96,10.0,SE,8.1,-,N/A,,Clear,130,2013-09-20 00:53:00
8:53 PM,82.9,64.9,54,29.97,10.0,SSE,10.4,-,N/A,,Clear,150,2013-09-20 01:53:00
9:53 PM,81.0,64.9,58,29.98,10.0,SSE,8.1,-,N/A,,Clear,150,2013-09-20 02:53:00
10:53 PM,77.0,66.0,69,30.00,10.0,South,4.6,-,N/A,,Clear,190,2013-09-20 03:53:00
11:53 PM,73.9,66.0,76,30.00,10.0,South,4.6,-,N/A,,Clear,180,2013-09-20 04:53:00